Mountain Home, ID

5:24 PM MDT on August 20, 2017 (GMT -0600)
Mountain Home Air Force Base

Weather History for KMUO - June, 2013

Change the Weather History Date:

Tuesday, June 18, 2013

  Actual Average Record
Temperature  
Mean Temperature 71 °F 68 °F  
Max Temperature 86 °F 83 °F 105 °F (1974)
Min Temperature 56 °F 52 °F 29 °F (1973)
Degree Days  
Heating Degree Days 0 2  
Month to date heating degree days 20 58  
Cooling Degree Days 6 5  
Month to date cooling degree days 79 61  
Growing Degree Days 23 (Base 50)    
Moisture  
Dew Point 33 °F    
Average Humidity 23    
Maximum Humidity 38    
Minimum Humidity 11    
Precipitation  
Precipitation 0.00 in 0.02 in 0.35 in (1964)
Month to date precipitation T 0.44  
Sea Level Pressure  
Sea Level Pressure 29.67 in    
Wind  
Wind Speed 12 mph (NW)    
Max Wind Speed 45 mph    
Max Gust Speed 58 mph    
Visibility 9 miles    
Events      
T = Trace of Precipitation, MM = Missing Value Source: NWS Daily Summary

Daily Weather History Graph

Daily Weather History Graph

Search for Another Location

Airport or City:

Trip Planner

Search our weather history database for the weather conditions in past years. The results will help you decide how hot, cold, wet, or windy it might be!

Date:

Astronomy

Jun. 18, 2013 Rise Set
Actual Time 6:03 AM MDT 9:25 PM MDT
Civil Twilight 5:28 AM MDT 10:01 PM MDT
Nautical Twilight 4:42 AM MDT 10:47 PM MDT
Astronomical Twilight 3:45 AM MDT 11:44 PM MDT
Moon 4:09 PM MDT (6/18) 2:21 AM MDT (6/18)
Length of Visible Light 16h 32m
Length of Day
15h 21m
Waxing Gibbous, 71% of the Moon is Illuminated
Jun 18
Waxing Gibbous
Jun 23
Full
Jun 29
Last Quarter
Jul 8
New
Jul 15
First Quarter

Hourly Weather History & Observations

Time (MDT) Temp. Dew Point Humidity Pressure Visibility Wind Dir Wind Speed Gust Speed Precip Events Conditions
12:55 AM 70.5 °F 36.0 °F 28% 29.71 in 10.0 mi ENE 3.5 mph - N/A   Clear
1:55 AM 69.8 °F 33.8 °F 27% 29.71 in 10.0 mi Calm Calm - N/A   Overcast
2:55 AM 66.7 °F 28.0 °F 23% 29.73 in 10.0 mi North 6.9 mph - N/A   Scattered Clouds
3:55 AM 70.5 °F 24.6 °F 18% 29.82 in 10.0 mi North 11.5 mph - N/A   Clear
4:55 AM 63.1 °F 26.6 °F 25% 29.75 in 10.0 mi NW 5.8 mph - N/A   Clear
5:55 AM 57.0 °F 25.2 °F 29% 29.76 in 10.0 mi West 6.9 mph - N/A   Partly Cloudy
6:55 AM 57.7 °F 29.5 °F 34% 29.78 in 10.0 mi WNW 9.2 mph - N/A   Scattered Clouds
7:55 AM 66.0 °F 39.4 °F 38% 29.78 in 10.0 mi West 11.5 mph - N/A   Scattered Clouds
8:55 AM 68.7 °F 40.8 °F 36% 29.79 in 10.0 mi WNW 10.4 mph - N/A   Scattered Clouds
9:55 AM 74.5 °F 40.6 °F 30% 29.77 in 10.0 mi NW 11.5 mph - N/A   Overcast
10:55 AM 78.4 °F 34.7 °F 21% 29.75 in 10.0 mi NNW 6.9 mph - N/A   Clear
11:55 AM 81.0 °F 32.9 °F 18% 29.74 in 10.0 mi NW 8.1 mph - N/A   Clear
12:55 PM 81.5 °F 31.1 °F 16% 29.71 in 10.0 mi Calm Calm - N/A   Clear
1:55 PM 83.8 °F 29.1 °F 14% 29.68 in 10.0 mi WNW 9.2 mph - N/A   Clear
2:55 PM 83.8 °F 29.1 °F 14% 29.65 in 10.0 mi NNW 11.5 mph 17.3 mph N/A   Partly Cloudy
3:55 PM 87.8 °F 29.1 °F 12% 29.60 in 10.0 mi West 8.1 mph - N/A   Partly Cloudy
4:56 PM 87.8 °F 29.1 °F 12% 29.57 in 10.0 mi NNW 4.6 mph - N/A   Scattered Clouds
5:56 PM 89.6 °F 29.1 °F 11% 29.54 in 10.0 mi SSW 4.6 mph - N/A   Mostly Cloudy
6:56 PM 83.8 °F 29.1 °F 14% 29.51 in 10.0 mi NNW 16.1 mph 24.2 mph N/A   Mostly Cloudy
7:16 PM 86.0 °F 28.4 °F 12% 29.58 in 6.0 mi NW 26.5 mph 34.5 mph N/A   Widespread Dust
7:34 PM 86.0 °F 28.4 °F 12% 29.58 in 2.0 mi NW 40.3 mph 56.4 mph N/A   Widespread Dust
7:42 PM 86.0 °F 28.4 °F 12% 29.57 in 1.5 mi NW 44.9 mph 57.5 mph N/A   Widespread Dust
7:56 PM 75.2 °F 42.8 °F 31% 29.60 in 2.0 mi NW 44.9 mph 56.4 mph N/A   Widespread Dust
8:15 PM 73.4 °F 41.0 °F 31% 29.63 in 4.0 mi NNW 38.0 mph 49.5 mph N/A   Widespread Dust
8:35 PM 71.6 °F 42.8 °F 35% 29.65 in 7.0 mi NNW 33.4 mph 44.9 mph N/A   Widespread Dust
8:58 PM 71.6 °F 42.8 °F 35% 29.66 in 10.0 mi NNW 31.1 mph 40.3 mph N/A   Overcast
9:55 PM 71.6 °F 37.4 °F 29% 29.59 in 10.0 mi NNW 25.3 mph 33.4 mph N/A   Overcast
10:58 PM 71.6 °F 37.4 °F 29% 29.59 in 10.0 mi NNW 26.5 mph 32.2 mph N/A   Overcast
11:55 PM 71.6 °F 33.8 °F 25% 29.59 in 10.0 mi NNW 23.0 mph 31.1 mph N/A   Overcast